• In United Kingdom
  • List of Countries
  • For 7 days
  • Water Temperature
  • Satellite Maps
  • Weather Map
  • Weather Widgets
  • user-avatar
    Login

    Hourly Weather Palanca

    Today, 15 November, Thursday

    Time Temperature Precipitation Wind Pressure Humidity
    00:00 +3°C° 0 mm 1 mps 751 mmHg 91%
    01:00 +4°C° 0 mm 1 mps 751 mmHg 92%
    02:00 +4°C° 0 mm 1 mps 751 mmHg 91%
    03:00 +4°C° 0.2 mm 1 mps 751 mmHg 91%
    04:00 +4°C° 0.2 mm 2 mps 751 mmHg 92%
    05:00 +4°C° 0.2 mm 2 mps 751 mmHg 93%
    06:00 +3°C° 0.5 mm 3 mps 751 mmHg 93%
    07:00 +3°C° 0.5 mm 3 mps 751 mmHg 92%
    08:00 +3°C° 0 mm 4 mps 751 mmHg 89%
    09:00 +4°C° 0.2 mm 4 mps 752 mmHg 85%
    10:00 +3°C° 0.2 mm 5 mps 752 mmHg 80%
    11:00 +3°C° 0.2 mm 5 mps 752 mmHg 76%
    12:00 +5°C° 0 mm 5 mps 752 mmHg 72%
    13:00 +5°C° 0 mm 5 mps 752 mmHg 69%
    14:00 +5°C° 0 mm 4 mps 752 mmHg 65%
    15:00 +5°C° 0.1 mm 4 mps 753 mmHg 67%
    16:00 +5°C° 0.1 mm 4 mps 753 mmHg 69%
    17:00 +4°C° 0.1 mm 4 mps 753 mmHg 70%
    18:00 +4°C° 0.1 mm 4 mps 753 mmHg 72%
    19:00 +3°C° 0.1 mm 4 mps 754 mmHg 74%
    20:00 +3°C° 0.1 mm 4 mps 754 mmHg 77%
    21:00 +3°C° 0 mm 4 mps 754 mmHg 77%
    22:00 +1°C° 0 mm 4 mps 754 mmHg 78%
    23:00 +1°C° 0 mm 4 mps 755 mmHg 78%

    Tomorrow, 16 November, Friday

    Time Temperature Precipitation Wind Pressure Humidity
    00:00 +1°C° 0.1 mm 5 mps 755 mmHg 76%
    01:00 +1°C° 0.1 mm 5 mps 755 mmHg 74%
    02:00 0°C° 0.1 mm 5 mps 756 mmHg 72%
    03:00 0°C° 0.1 mm 5 mps 756 mmHg 70%
    04:00 0°C° 0.1 mm 5 mps 756 mmHg 67%
    05:00 -1°C° 0.1 mm 5 mps 756 mmHg 65%
    06:00 -1°C° 0 mm 5 mps 756 mmHg 64%
    07:00 -2°C° 0 mm 5 mps 756 mmHg 63%
    08:00 -2°C° 0 mm 5 mps 757 mmHg 63%
    09:00 -2°C° 0 mm 5 mps 757 mmHg 60%
    10:00 -1°C° 0 mm 5 mps 757 mmHg 58%
    11:00 -1°C° 0 mm 6 mps 757 mmHg 56%
    12:00 -1°C° 0.1 mm 6 mps 757 mmHg 55%
    13:00 +1°C° 0.1 mm 6 mps 757 mmHg 55%
    14:00 +1°C° 0.1 mm 6 mps 757 mmHg 54%
    15:00 +1°C° 0.1 mm 6 mps 757 mmHg 56%
    16:00 0°C° 0.1 mm 5 mps 758 mmHg 59%
    17:00 0°C° 0.1 mm 5 mps 758 mmHg 61%
    18:00 0°C° 0.1 mm 5 mps 758 mmHg 63%
    19:00 -1°C° 0.1 mm 5 mps 758 mmHg 66%
    20:00 -1°C° 0.1 mm 5 mps 759 mmHg 68%
    21:00 -1°C° 0.1 mm 5 mps 759 mmHg 70%
    22:00 -2°C° 0.1 mm 5 mps 759 mmHg 73%
    23:00 -2°C° 0.1 mm 5 mps 759 mmHg 75%

    Day after tomorrow, 17 November, Saturday

    Time Temperature Precipitation Wind Pressure Humidity
    00:00 -2°C° 0.1 mm 4 mps 759 mmHg 75%
    01:00 -2°C° 0.1 mm 4 mps 759 mmHg 75%
    02:00 -2°C° 0.1 mm 4 mps 759 mmHg 76%
    03:00 -2°C° 0 mm 4 mps 759 mmHg 74%
    04:00 -2°C° 0 mm 4 mps 759 mmHg 72%
    05:00 -2°C° 0 mm 4 mps 759 mmHg 70%
    06:00 -2°C° 0 mm 4 mps 759 mmHg 66%
    07:00 -2°C° 0 mm 4 mps 760 mmHg 63%
    08:00 -2°C° 0 mm 4 mps 760 mmHg 60%
    09:00 -2°C° 0 mm 4 mps 760 mmHg 57%
    10:00 -1°C° 0 mm 4 mps 760 mmHg 53%
    11:00 -1°C° 0 mm 4 mps 759 mmHg 50%
    12:00 0°C° 0 mm 4 mps 759 mmHg 49%
    13:00 0°C° 0 mm 4 mps 759 mmHg 48%
    14:00 +1°C° 0 mm 4 mps 758 mmHg 46%
    15:00 +1°C° 0 mm 3 mps 758 mmHg 49%
    16:00 +1°C° 0 mm 3 mps 758 mmHg 52%
    17:00 +1°C° 0 mm 3 mps 758 mmHg 55%
    18:00 +1°C° 0 mm 3 mps 758 mmHg 55%
    19:00 +1°C° 0 mm 3 mps 758 mmHg 55%
    20:00 +1°C° 0 mm 3 mps 758 mmHg 55%
    21:00 +1°C° 0 mm 2 mps 758 mmHg 57%
    22:00 -1°C° 0 mm 2 mps 758 mmHg 58%
    23:00 -1°C° 0 mm 2 mps 758 mmHg 60%

    18 November, Sunday

    Time Temperature Precipitation Wind Pressure Humidity
    00:00 -2°C° 0 mm 2 mps 757 mmHg 61%
    01:00 -2°C° 0 mm 2 mps 757 mmHg 62%
    02:00 -2°C° 0 mm 2 mps 756 mmHg 63%
    03:00 -3°C° 0 mm 2 mps 756 mmHg 63%
    04:00 -3°C° 0 mm 2 mps 755 mmHg 64%
    05:00 -3°C° 0 mm 2 mps 755 mmHg 64%
    06:00 -1°C° 0 mm 1 mps 755 mmHg 63%
    07:00 -1°C° 0 mm 1 mps 754 mmHg 62%
    08:00 -1°C° 0 mm 1 mps 754 mmHg 61%
    09:00 0°C° 0 mm 1 mps 754 mmHg 55%
    10:00 -1°C° 0 mm 2 mps 753 mmHg 49%
    11:00 +2°C° 0 mm 2 mps 753 mmHg 43%
    12:00 +2°C° 0 mm 2 mps 752 mmHg 41%
    13:00 +3°C° 0 mm 2 mps 751 mmHg 39%
    14:00 +5°C° 0 mm 1 mps 751 mmHg 37%
    15:00 +4°C° 0 mm 1 mps 750 mmHg 39%
    16:00 +3°C° 0 mm 1 mps 750 mmHg 42%
    17:00 +1°C° 0 mm 0 mps 750 mmHg 45%
    18:00 +1°C° 0 mm 0 mps 750 mmHg 47%
    19:00 +1°C° 0 mm 1 mps 749 mmHg 49%
    20:00 +1°C° 0 mm 1 mps 749 mmHg 50%
    21:00 +1°C° 0 mm 1 mps 749 mmHg 51%
    22:00 0°C° 0 mm 1 mps 749 mmHg 52%
    23:00 0°C° 0 mm 1 mps 749 mmHg 53%

    19 November, Monday

    Time Temperature Precipitation Wind Pressure Humidity
    00:00 0°C° 0 mm 1 mps 749 mmHg 54%
    01:00 0°C° 0 mm 1 mps 748 mmHg 54%
    02:00 0°C° 0 mm 1 mps 748 mmHg 55%
    03:00 0°C° 0 mm 1 mps 748 mmHg 56%
    04:00 -1°C° 0 mm 1 mps 748 mmHg 56%
    05:00 -1°C° 0 mm 1 mps 748 mmHg 57%
    06:00 0°C° 0 mm 1 mps 748 mmHg 56%
    07:00 -2°C° 0 mm 2 mps 748 mmHg 56%
    08:00 -2°C° 0 mm 2 mps 748 mmHg 56%
    09:00 -1°C° 0 mm 2 mps 748 mmHg 53%
    10:00 +1°C° 0 mm 2 mps 748 mmHg 51%
    11:00 0°C° 0 mm 3 mps 748 mmHg 48%
    12:00 +1°C° 0 mm 3 mps 748 mmHg 49%
    13:00 +1°C° 0 mm 3 mps 748 mmHg 50%
    14:00 +1°C° 0 mm 3 mps 747 mmHg 51%
    15:00 +1°C° 0 mm 3 mps 747 mmHg 56%
    16:00 +1°C° 0 mm 3 mps 747 mmHg 60%
    17:00 0°C° 0 mm 3 mps 747 mmHg 65%
    18:00 0°C° 0.2 mm 3 mps 747 mmHg 71%
    19:00 +1°C° 0.2 mm 2 mps 747 mmHg 77%
    20:00 +1°C° 0.2 mm 2 mps 747 mmHg 83%
    21:00 +1°C° 0.5 mm 2 mps 747 mmHg 86%
    22:00 +1°C° 0.5 mm 2 mps 747 mmHg 89%
    23:00 +1°C° 0.5 mm 2 mps 747 mmHg 91%

    20 November, Tuesday

    Time Temperature Precipitation Wind Pressure Humidity
    00:00 +2°C° 0.4 mm 2 mps 747 mmHg 92%
    01:00 +2°C° 0.4 mm 2 mps 747 mmHg 93%
    02:00 +2°C° 0.4 mm 2 mps 747 mmHg 94%
    03:00 +2°C° 0.1 mm 2 mps 747 mmHg 94%
    04:00 +3°C° 0.1 mm 2 mps 747 mmHg 94%
    05:00 +3°C° 0.1 mm 2 mps 747 mmHg 94%
    06:00 +3°C° 0 mm 2 mps 747 mmHg 94%
    07:00 +2°C° 0 mm 3 mps 747 mmHg 94%
    08:00 +2°C° 0 mm 3 mps 747 mmHg 93%
    09:00 +3°C° 0 mm 3 mps 747 mmHg 92%
    10:00 +3°C° 0 mm 3 mps 747 mmHg 91%
    11:00 +3°C° 0 mm 3 mps 747 mmHg 89%
    12:00 +4°C° 0 mm 3 mps 747 mmHg 89%
    13:00 +4°C° 0 mm 3 mps 746 mmHg 88%
    14:00 +5°C° 0 mm 4 mps 746 mmHg 88%
    15:00 +5°C° 0 mm 4 mps 746 mmHg 89%
    16:00 +5°C° 0 mm 5 mps 745 mmHg 91%
    17:00 +5°C° 0 mm 5 mps 745 mmHg 92%
    18:00 +4°C° 0.2 mm 6 mps 745 mmHg 92%
    19:00 +5°C° 0.2 mm 6 mps 744 mmHg 92%
    20:00 +5°C° 0.2 mm 6 mps 744 mmHg 92%
    21:00 +5°C° 0.2 mm 6 mps 744 mmHg 92%
    22:00 +5°C° 0.2 mm 7 mps 743 mmHg 92%
    23:00 +6°C° 0.2 mm 7 mps 743 mmHg 92%
    Show more